GFSGBSN_500_rhum_225.txt.gz
RH
13 16 11 8 8 8 9 9 8 8 8 7 8 8 8 9 16 22 17 16 16 14 17 20 30 33 33 30 27 31 29 28 29 28 18 11 11 12 13 12 32 37 28 24 29 85 94
10 14 15 11 9 9 9 9 8 8 7 7 8 8 8 9 12 24 19 15 14 14 14 17 20 28 29 28 31 30 29 30 28 28 22 12 12 12 15 13 14 34 36 28 26 36 95
9 11 15 16 13 12 10 9 8 7 7 7 7 7 8 9 11 18 23 16 13 13 12 18 22 24 28 32 34 32 27 26 29 25 21 18 12 11 13 15 12 14 37 35 29 25 40
8 10 11 16 18 17 14 12 12 8 7 7 8 8 8 10 10 15 23 21 16 11 12 11 16 18 24 22 23 27 29 31 27 25 25 19 16 12 12 15 14 13 21 36 33 28 27
6 7 10 12 16 19 19 15 15 13 9 8 8 11 11 13 11 14 20 27 24 18 16 17 18 14 21 21 26 28 30 30 28 28 27 22 20 18 14 12 18 14 13 23 36 31 27
6 6 7 10 13 18 20 20 19 19 14 10 12 13 18 19 18 14 16 25 31 27 20 22 23 32 33 35 48 48 40 38 45 43 35 29 29 20 17 12 11 14 13 12 28 34 30
9 7 8 9 12 16 19 22 23 23 19 16 18 20 26 25 26 24 20 17 29 38 30 26 24 25 40 50 70 75 79 74 52 47 43 34 28 30 29 16 14 18 17 13 13 33 35
15 13 12 10 12 16 21 24 26 28 25 22 24 26 29 28 28 27 27 26 22 29 40 42 31 31 34 40 63 79 85 87 73 68 49 38 32 46 50 29 15 16 21 16 17 24 34
22 18 16 16 14 16 20 27 29 30 30 28 29 28 30 29 28 26 25 26 29 29 34 38 40 33 33 44 49 68 82 91 88 77 79 62 72 71 70 52 24 16 22 22 19 20 27
23 25 22 19 20 21 23 24 31 34 34 33 31 30 30 29 27 26 23 22 23 27 32 32 41 38 38 45 61 44 54 66 82 74 75 73 54 76 74 59 36 21 26 27 23 27 19
30 26 26 28 22 23 25 29 33 37 39 36 34 31 30 28 25 23 26 26 26 25 24 29 34 38 42 50 59 47 44 70 66 64 61 73 66 77 77 52 34 23 30 31 29 36 29
42 34 30 28 38 29 28 31 37 43 44 43 39 34 32 30 27 25 27 30 34 28 27 24 25 32 42 48 64 54 52 57 64 71 73 79 92 84 75 51 41 39 40 40 38 43 50
43 44 34 37 37 42 37 34 42 50 52 50 48 43 38 35 32 30 30 35 39 36 38 35 28 21 33 47 56 55 61 37 41 64 82 74 87 81 76 78 66 52 44 53 53 66 94
47 44 37 40 33 44 50 48 32 47 54 56 56 55 50 46 42 37 35 37 42 44 46 46 44 34 20 35 53 58 52 48 48 63 68 65 73 73 80 62 54 45 41 43 50 94 58
93 47 61 82 36 45 37 61 69 32 41 51 56 59 61 61 58 55 50 46 45 47 50 52 53 49 41 21 35 54 54 34 39 62 60 51 72 61 54 48 42 42 42 38 48 82 100
98 95 86 67 60 58 53 57 66 84 52 34 44 53 58 61 64 65 64 59 56 58 56 56 60 57 54 48 22 35 55 56 31 35 72 83 55 58 44 38 34 36 76 46 36 49 35
100 99 100 100 97 98 98 93 83 96 96 84 40 45 47 54 57 59 60 61 64 71 74 65 63 63 62 58 51 22 40 61 60 43 42 70 37 41 56 37 37 31 32 48 70 77 61
99 94 99 98 99 100 97 97 94 100 99 98 98 97 62 36 46 52 55 58 59 60 68 72 69 69 67 65 61 54 23 36 65 65 70 76 54 35 32 36 48 42 33 43 44 40 52
59 68 77 88 92 93 93 96 98 98 100 99 98 98 99 96 63 37 44 52 57 60 61 68 69 70 72 68 64 59 54 28 36 55 77 88 70 71 50 29 24 29 44 39 37 44 33
2 2 4 8 25 46 60 84 98 100 99 98 99 98 99 99 100 97 70 45 40 51 58 65 72 73 82 76 79 66 62 57 35 33 48 78 66 67 71 88 88 53 62 66 50 36 35
2 2 2 2 2 2 3 12 45 81 90 100 100 99 98 96 100 98 100 94 88 45 45 58 70 70 80 91 89 74 66 65 59 45 24 44 44 68 85 85 78 92 92 95 44 56 59
3 2 2 2 2 2 2 2 3 3 17 77 100 99 100 95 100 100 100 99 100 100 93 72 63 63 77 88 95 92 78 66 64 61 50 22 43 46 50 79 77 70 72 82 86 76 61
6 6 5 4 3 2 2 2 3 4 4 4 6 42 97 100 100 100 100 100 96 100 100 98 92 64 59 78 89 96 96 83 74 66 61 57 34 22 36 48 51 62 71 78 75 65 69
12 9 7 5 4 2 2 2 3 4 6 7 6 5 7 44 92 100 100 100 99 100 95 100 99 99 75 74 81 97 98 100 85 79 74 65 62 52 32 22 34 39 41 49 53 54 54
14 8 5 4 3 3 2 2 3 4 4 6 9 12 11 6 7 22 94 100 100 100 100 98 100 100 100 96 88 95 98 100 94 85 74 76 80 75 63 49 39 28 25 24 23 27 31
7 4 3 3 3 3 3 2 2 3 3 3 3 6 11 13 13 12 10 23 89 100 100 100 100 100 100 99 100 93 97 98 100 96 88 74 76 93 93 75 60 47 45 36 32 32 27
3 3 4 4 4 4 4 4 4 4 4 5 5 4 4 5 10 13 12 12 11 36 91 100 100 100 100 100 100 98 90 96 94 91 95 94 93 88 83 91 88 73 60 54 50 44 41
4 6 6 6 6 6 6 6 6 6 7 7 6 6 6 5 4 7 12 13 12 10 8 35 94 100 100 100 100 100 98 100 100 90 74 63 81 100 98 98 79 74 75 73 66 62 56
8 8 8 8 8 7 6 7 7 8 8 9 8 8 8 7 6 6 6 10 11 10 8 6 6 37 100 100 100 100 98 100 100 99 100 96 88 92 92 91 92 86 78 70 66 62 71

GFSGBSN_500_rhum_228.txt.gz
RH
9 9 11 16 13 10 10 10 10 10 10 10 10 11 12 12 14 12 11 14 13 10 8 8 10 12 18 19 22 26 33 38 33 28 27 24 12 11 10 12 14 27 33 24 18 34 86
6 8 9 12 15 15 14 15 13 13 13 11 10 11 14 12 15 13 12 15 15 13 9 8 9 13 18 21 22 21 23 25 28 30 28 25 18 11 10 11 14 14 34 33 25 20 56
5 6 8 9 10 14 16 17 17 15 16 14 11 13 16 16 20 18 14 14 18 16 13 10 10 11 14 17 17 17 22 20 22 26 27 28 20 12 9 10 13 13 18 36 31 24 22
6 5 6 7 8 10 12 16 18 18 18 18 16 15 18 18 24 23 20 18 18 20 18 15 15 17 19 23 22 23 20 21 25 25 24 25 26 17 11 11 12 14 14 25 36 29 22
9 6 6 6 7 9 12 15 18 19 21 21 20 20 23 23 27 27 27 25 22 24 24 22 19 18 27 29 42 49 48 26 24 26 28 29 27 23 16 13 12 16 14 14 28 36 29
14 11 8 7 7 8 10 14 16 18 21 23 23 24 26 28 29 29 30 29 28 27 27 28 24 23 24 28 40 54 61 62 54 40 28 34 28 26 21 15 10 12 17 14 17 31 36
16 17 14 11 9 9 9 11 15 18 20 25 25 26 28 30 31 30 29 30 31 30 30 28 28 28 27 27 35 40 55 64 77 72 46 35 32 31 30 24 19 17 18 18 14 23 33
23 18 18 17 14 13 12 13 14 20 23 24 28 27 30 30 32 31 29 28 29 30 30 30 31 31 30 27 34 44 46 38 70 81 71 49 43 49 43 37 21 18 14 19 17 18 20
32 27 22 20 21 18 16 16 16 18 22 28 29 31 30 31 31 32 27 27 28 29 29 28 30 34 34 32 36 31 29 26 46 86 72 54 55 46 35 35 34 21 16 13 19 18 21
40 37 31 27 23 25 23 20 20 21 24 27 34 34 34 32 30 29 28 25 27 30 29 28 31 32 31 36 35 28 22 20 32 64 61 52 62 55 53 46 35 31 20 15 16 24 18
48 46 44 40 34 28 29 28 26 25 29 35 38 40 38 36 32 33 29 27 28 34 32 34 34 34 32 32 38 34 22 20 25 34 50 52 55 59 46 57 54 33 42 22 18 24 26
64 59 56 50 43 43 36 44 39 32 33 33 45 48 47 42 37 34 34 30 29 32 33 38 41 42 42 31 35 38 32 20 24 32 43 40 47 52 49 85 76 69 43 32 22 28 34
86 91 71 70 64 52 47 40 44 58 39 37 41 52 53 51 47 43 40 39 37 35 35 39 44 49 51 45 31 37 39 30 21 33 40 39 39 65 73 70 62 55 45 34 31 43 30
94 95 99 99 82 59 60 41 44 47 54 53 41 40 51 55 56 55 53 51 48 44 42 43 46 50 53 53 46 29 42 42 24 26 46 31 41 47 59 62 65 56 59 42 31 25 45
95 99 96 98 97 91 97 77 68 69 54 65 69 46 39 47 55 60 61 62 62 59 55 56 53 54 55 57 56 49 28 46 45 24 28 36 30 36 42 70 78 59 61 68 55 54 54
98 99 100 99 100 100 100 99 98 88 90 88 86 87 77 48 44 52 59 64 65 69 82 79 72 65 61 63 61 60 45 40 49 50 27 43 36 35 33 34 38 48 60 58 65 78 57
96 98 98 90 88 91 96 92 99 100 98 100 100 100 99 96 82 50 41 58 60 63 80 88 87 81 74 71 72 66 57 45 38 54 62 38 44 44 37 39 42 46 43 48 58 62 53
42 49 47 50 66 74 79 83 82 90 91 98 96 100 100 99 98 90 76 38 53 50 60 83 84 85 81 84 86 80 65 60 38 38 65 75 55 49 40 41 40 31 37 52 54 48 44
2 2 2 2 2 2 2 2 4 14 44 81 94 98 100 98 97 100 99 100 95 76 40 54 83 90 85 89 91 86 82 67 56 39 48 81 65 82 68 40 34 29 30 30 29 44 33
3 3 3 3 3 3 2 2 2 2 2 2 3 36 89 100 99 98 99 94 99 100 96 60 54 82 92 95 99 94 94 89 74 62 44 46 54 54 74 98 92 64 70 60 50 38 37
6 6 6 6 6 5 6 6 5 4 3 2 2 2 2 13 79 100 100 95 99 100 99 100 98 82 81 93 100 97 100 96 94 82 56 50 38 50 60 100 91 93 94 100 72 61 49
10 10 10 10 10 9 9 9 8 6 5 4 3 2 2 2 2 8 97 98 100 100 99 100 99 100 92 87 93 100 98 100 98 95 91 67 56 38 40 57 97 98 100 99 94 100 83
18 18 18 16 15 14 14 12 10 6 4 3 3 2 2 2 2 4 3 22 99 100 100 100 100 97 100 100 96 99 99 100 100 100 100 92 78 63 48 38 55 61 64 80 74 73 94
24 24 25 24 24 22 18 12 8 4 3 2 3 3 2 2 2 4 6 7 5 51 98 100 100 100 100 100 100 100 100 100 100 100 100 100 100 92 77 60 39 39 49 58 79 94 96
31 31 29 23 14 8 5 3 2 2 2 3 3 3 3 2 3 3 4 8 11 8 8 93 100 100 100 100 100 100 100 99 97 100 100 100 100 98 94 87 73 61 35 38 58 49 60
26 19 9 5 3 3 3 3 4 4 5 5 5 5 4 4 3 3 4 4 6 12 12 10 18 99 100 100 100 97 100 99 100 100 100 100 100 100 99 95 78 73 74 65 53 53 59
4 3 4 5 6 6 6 6 6 6 6 6 6 6 6 6 6 5 5 5 6 6 11 16 14 11 62 100 100 99 96 100 100 100 100 100 100 99 100 99 84 86 88 93 91 75 68
6 7 8 8 9 9 9 8 8 8 8 7 7 7 8 8 7 7 7 8 8 6 5 9 15 15 12 19 98 100 97 99 100 100 100 100 100 100 100 100 82 90 94 92 88 98 100
11 11 12 11 13 20 21 18 16 16 13 13 12 12 15 19 15 11 11 10 9 12 10 8 12 14 12 18 100 100 97 92 100 98 100 100 100 100 100 95 93 100 100 100 100 99 100

GFSGBSN_500_rhum_234.txt.gz
RH
9 8 6 5 6 7 8 8 9 11 13 14 15 15 16 18 18 17 19 19 20 22 24 23 24 23 21 18 16 14 20 21 14 20 41 43 41 30 20 16 9 8 11 16 28 21 17
12 10 8 6 5 6 7 8 8 8 9 10 11 14 15 16 17 18 21 22 21 22 24 24 26 25 25 23 18 14 17 24 25 15 21 38 37 30 20 17 14 10 8 11 17 28 21
16 13 11 9 6 6 6 7 7 7 8 9 10 12 14 15 17 19 22 23 22 23 25 25 26 26 27 26 25 17 15 20 25 28 16 18 35 33 23 17 15 14 11 9 10 18 28
22 19 16 13 12 8 6 6 7 7 7 8 9 10 12 13 16 18 22 24 24 24 25 25 25 26 28 28 29 25 16 14 22 29 32 22 16 30 34 26 18 15 14 10 8 10 19
34 26 21 18 15 16 11 8 8 8 8 8 9 10 12 14 16 18 22 24 28 28 27 26 25 25 27 29 30 32 26 15 11 21 30 33 25 15 22 28 29 20 17 14 9 8 11
47 41 29 28 22 20 19 16 12 10 9 9 10 10 12 13 16 20 23 25 28 30 28 26 25 24 25 29 30 31 33 27 14 10 13 20 29 28 17 19 25 27 22 17 14 11 9
82 60 43 35 32 24 25 21 19 17 14 12 12 13 15 18 20 21 24 27 26 28 30 27 28 30 28 30 30 32 32 34 26 12 10 12 18 37 42 26 20 22 23 20 14 10 10
93 94 71 52 44 34 28 28 25 23 21 18 17 17 16 18 20 23 28 27 28 26 29 29 29 29 29 29 31 35 34 34 34 20 12 11 15 20 43 42 22 20 21 19 12 11 9
91 89 92 70 57 51 40 40 36 34 32 28 24 22 23 22 23 27 28 30 29 29 28 28 27 27 27 29 32 36 38 39 36 33 14 14 12 23 46 52 32 25 22 22 17 16 11
84 97 90 86 71 64 57 57 55 50 44 40 35 33 30 29 28 30 33 32 31 31 28 28 28 26 28 30 32 36 41 43 40 37 28 15 13 16 38 54 46 32 34 29 26 19 16
94 99 100 95 95 92 76 81 77 70 64 61 56 50 45 39 34 34 35 38 39 38 32 33 31 28 29 30 32 36 42 47 48 44 38 22 17 12 16 34 29 34 42 39 31 26 25
93 100 100 99 98 97 97 95 97 93 91 82 94 82 63 55 56 44 38 42 44 39 38 40 39 37 34 35 35 38 43 48 50 49 44 37 18 18 16 16 20 23 25 38 40 31 23
99 97 98 100 98 98 97 97 96 98 100 98 97 98 97 82 65 63 58 43 36 37 42 45 48 47 46 45 45 45 47 50 52 53 52 45 34 20 22 22 26 31 41 40 41 38 28
92 90 84 91 96 98 98 98 97 98 97 98 98 98 98 97 98 94 84 81 67 46 37 42 52 58 56 59 58 62 61 58 57 57 58 55 44 35 24 23 24 26 39 48 46 50 41
85 89 90 94 93 88 87 91 95 96 96 98 97 97 100 96 100 98 97 86 87 88 84 72 49 71 66 64 72 81 84 76 70 64 57 60 52 48 38 22 24 24 29 64 62 66 61
78 74 78 72 66 64 58 53 50 54 64 75 87 94 98 100 98 98 98 86 97 100 100 98 95 92 80 75 74 82 81 85 91 97 80 62 63 56 50 44 26 26 28 39 50 61 57
2 2 2 1 1 2 2 2 2 2 2 2 2 2 7 30 74 95 94 91 99 100 99 97 99 99 100 96 90 82 80 86 99 100 98 94 79 67 59 56 51 28 24 27 47 45 40
3 3 3 2 3 3 4 4 5 5 4 3 2 2 2 2 2 2 4 10 57 88 100 99 97 100 100 100 96 95 88 80 95 99 98 100 87 83 72 60 56 57 34 34 30 31 35
5 5 5 5 5 6 7 8 9 9 8 8 7 6 6 6 4 4 4 3 2 2 2 5 53 95 100 99 98 93 100 100 90 99 99 100 88 80 77 64 54 85 88 80 46 35 24
11 12 12 12 13 14 14 15 15 15 14 14 13 12 12 12 12 11 11 8 7 6 5 4 2 2 8 43 91 92 99 100 100 97 100 99 90 84 79 72 68 83 86 96 64 30 24
22 22 22 21 22 22 23 24 26 28 30 29 27 26 24 20 18 19 20 16 15 14 11 8 5 4 3 2 2 18 56 87 100 100 100 100 86 86 84 89 81 72 76 100 85 79 41
17 16 15 14 14 14 15 18 22 25 28 33 36 33 33 30 30 29 28 24 23 20 18 15 10 7 5 4 3 2 2 19 86 100 100 100 91 100 89 100 86 86 85 78 68 60 50
10 8 6 5 5 6 8 14 22 27 29 33 41 46 42 37 39 37 35 32 28 23 19 15 12 9 6 4 3 3 2 2 3 54 100 100 97 100 90 100 100 81 74 81 71 70 68
2 2 2 2 2 2 3 3 3 4 4 7 14 23 32 34 34 32 28 22 17 12 10 8 6 5 6 4 3 3 2 2 2 4 86 100 100 100 93 100 98 66 71 81 95 94 83
2 2 3 3 3 3 4 4 5 5 5 5 6 6 6 5 6 6 5 5 4 4 4 3 3 3 3 3 3 3 3 4 2 3 16 100 100 100 100 95 85 78 88 89 95 85 100
3 3 4 4 5 5 6 7 9 10 10 12 13 12 10 8 7 8 7 7 7 6 6 5 5 5 5 5 5 5 4 4 5 6 20 100 100 100 100 99 87 63 93 100 100 79 97
4 5 5 8 11 15 15 14 15 22 81 82 88 43 22 17 17 18 14 13 14 10 9 8 8 7 7 7 6 7 6 8 47 9 9 50 100 100 100 100 79 73 91 98 98 83 100
6 8 13 17 64 56 20 16 38 72 100 100 100 98 57 30 34 34 32 31 68 58 30 19 13 12 10 11 10 10 14 26 19 13 18 91 100 100 100 100 87 74 92 100 93 100 100
14 19 20 22 80 68 34 24 41 100 100 100 100 99 77 45 41 45 56 47 57 65 46 35 44 42 34 19 16 16 23 37 70 74 29 66 100 98 100 100 96 100 100 99 92 100 100

GFSGBSN_500_rhum_240.txt.gz
RH
26 27 22 19 17 14 10 9 8 6 5 6 8 10 10 11 12 12 12 12 12 12 12 11 12 13 12 15 17 18 18 18 20 21 22 15 10 13 34 37 19 14 13 12 13 23 39
55 63 58 37 27 22 19 15 11 9 8 6 5 7 8 9 9 10 12 12 12 11 12 13 12 13 13 15 19 20 19 18 21 22 22 21 10 12 16 37 28 15 11 11 10 12 25
65 69 68 68 69 41 28 25 21 16 12 10 8 6 6 6 7 7 9 11 12 12 11 11 13 15 15 17 18 22 21 20 22 22 22 24 18 8 12 18 35 25 13 10 9 10 11
52 49 62 61 62 64 70 59 37 30 24 20 14 12 10 7 7 7 7 8 11 12 13 15 16 19 19 21 20 21 23 23 24 23 24 23 24 14 9 12 21 33 25 14 9 10 9
41 39 43 51 56 56 64 73 72 62 39 32 27 21 16 14 12 9 8 9 10 12 14 16 19 20 22 22 21 23 25 26 26 26 26 24 25 22 12 7 12 20 30 26 15 11 9
28 34 56 57 64 64 64 63 67 82 78 48 41 33 28 22 19 16 14 13 12 14 16 18 20 18 19 23 24 25 26 26 27 27 29 28 26 26 22 8 8 14 14 30 27 17 12
15 35 60 62 66 69 64 68 69 76 94 87 65 52 42 38 33 27 23 20 19 17 20 21 20 21 22 23 22 26 27 26 27 29 30 32 31 29 28 19 7 7 17 11 30 28 20
33 41 53 63 67 71 67 76 72 77 92 98 93 78 69 60 52 46 40 34 30 25 22 26 26 24 24 24 25 27 26 26 28 29 31 34 35 34 32 28 15 6 7 18 11 24 26
64 65 69 60 64 66 75 83 80 80 97 98 94 92 82 90 76 67 63 54 49 41 32 31 31 30 28 27 27 28 27 27 28 30 31 34 39 41 39 35 27 12 7 7 13 10 12
71 70 70 66 65 64 74 86 87 87 92 94 97 98 98 99 94 93 94 87 67 59 48 44 44 34 31 30 29 29 31 31 30 31 31 35 40 46 45 43 37 20 14 8 8 11 16
66 72 71 72 70 71 76 84 86 88 88 95 98 100 100 100 100 99 98 98 97 96 85 80 68 61 57 60 40 35 34 34 33 32 34 37 41 49 52 50 46 38 21 14 10 8 8
61 66 67 68 64 69 70 79 85 86 86 85 82 89 94 94 94 99 99 94 98 99 86 97 99 99 97 89 67 48 42 40 38 39 43 41 44 51 55 56 54 50 41 26 17 14 11
62 61 58 60 62 66 72 72 69 65 69 81 83 84 85 88 98 97 98 98 99 89 99 94 98 99 98 97 94 81 55 48 50 50 49 50 50 53 60 64 60 55 54 46 34 20 14
20 3 3 3 3 3 3 4 4 4 4 3 3 4 8 11 16 17 19 36 46 58 92 98 99 99 100 99 98 95 94 89 56 53 56 62 65 61 62 68 67 62 59 59 53 41 33
3 4 5 5 6 7 8 8 8 8 8 7 6 4 3 3 3 3 3 3 2 3 7 33 70 91 95 100 97 100 98 96 87 59 56 61 68 71 72 75 81 71 62 67 59 53 48
6 7 8 9 11 12 13 14 15 16 16 15 13 12 10 8 6 5 6 6 6 5 4 3 2 4 30 89 97 98 97 96 100 98 89 82 76 78 81 81 84 87 79 69 63 64 59
10 13 16 17 18 19 20 20 20 20 21 20 21 21 20 19 17 16 14 13 12 10 9 7 5 4 3 2 11 57 88 96 100 100 99 97 92 81 85 85 94 96 90 84 73 68 70
19 20 21 21 22 22 21 19 18 18 19 20 20 19 20 24 24 23 23 27 25 22 18 14 12 8 6 4 3 2 2 7 76 100 99 100 94 81 83 84 88 90 91 92 87 79 85
25 24 22 20 18 17 17 16 16 15 14 12 11 11 12 12 13 16 17 17 23 24 30 28 22 16 11 9 7 6 4 3 3 10 42 95 94 88 80 83 83 84 88 96 100 98 83
20 20 18 18 17 15 13 11 9 7 6 6 5 4 4 4 5 7 11 10 18 27 34 38 34 29 23 17 13 10 8 6 5 3 5 13 13 36 73 86 78 73 89 96 100 94 92
19 18 14 12 10 8 7 6 5 4 4 4 2 2 2 2 2 2 3 3 5 18 37 47 47 44 38 32 26 20 16 13 11 9 7 6 4 14 8 29 78 81 78 91 100 89 97
13 10 8 6 6 5 4 3 2 2 2 2 2 2 2 3 3 3 4 4 4 4 5 23 59 56 54 49 44 37 30 24 20 16 12 8 6 8 4 4 11 20 45 76 80 82 80
8 7 5 3 2 2 2 2 3 3 3 4 4 4 4 4 4 5 6 6 5 6 8 13 31 65 71 68 62 54 46 38 31 26 21 17 12 8 7 6 10 15 4 19 40 64 77
3 2 2 2 3 3 4 4 4 5 5 5 6 6 6 6 7 17 13 12 10 8 8 8 25 58 77 91 85 74 64 54 46 39 32 23 15 11 12 11 10 6 9 10 10 14 45
2 3 3 4 4 4 5 5 6 7 10 11 14 24 23 20 61 56 45 40 36 32 23 12 17 49 60 76 88 88 80 67 62 52 38 32 18 12 22 11 12 11 8 7 6 7 17
4 4 5 5 6 6 8 9 12 15 18 45 75 100 90 72 100 92 73 71 60 45 36 29 21 21 28 39 64 80 88 76 74 63 47 27 16 19 28 55 23 15 17 14 10 6 10
5 6 7 8 8 11 15 22 37 44 46 92 100 100 88 83 100 100 91 75 69 62 46 50 74 88 68 46 27 26 32 45 53 50 44 28 35 22 13 18 13 8 8 12 15 20 17
7 8 9 9 12 30 46 47 61 94 90 96 96 90 91 73 100 99 79 72 69 73 70 78 87 100 100 92 100 100 89 51 19 18 20 20 15 65 79 95 94 48 38 32 22 18 19
10 10 10 12 28 45 97 91 67 76 100 100 93 100 100 100 100 85 74 64 67 46 52 75 80 96 100 99 100 87 86 82 100 99 80 23 14 12 44 100 100 78 77 67 65 68 79